Weather History for KGGP - January, 2013

Change the Weather History Date:

Sunday, January 6, 2013

  Actual Average Record
Temperature  
Mean Temperature 28 °F -  
Max Temperature 33 °F 38 °F 33 °F (2013)
Min Temperature 23 °F 25 °F -14 °F (2014)
Degree Days  
Heating Degree Days 37    
Moisture  
Dew Point 26 °F    
Average Humidity 84    
Maximum Humidity 93    
Minimum Humidity 74    
Precipitation  
Precipitation 0.00 in - - ()
Sea Level Pressure  
Sea Level Pressure 30.12 in    
Wind  
Wind Speed 13 mph (WSW)    
Max Wind Speed 18 mph    
Max Gust Speed 25 mph    
Visibility 10 miles    
Events      
Averages and records for this station are not official NWS values.
T = Trace of Precipitation, MM = Missing Value Source: NWS Daily Summary

Daily Weather History Graph

Daily Weather History Graph

Search for Another Location

Airport or City:

Trip Planner

Search our weather history database for the weather conditions in past years. The results will help you decide how hot, cold, wet, or windy it might be!

Date:

Astronomy

Jan. 06, 2013 Rise Set
Actual Time 8:09 AM EST 5:33 PM EST
Civil Twilight 7:39 AM EST 6:04 PM EST
Nautical Twilight 7:04 AM EST 6:38 PM EST
Astronomical Twilight 6:31 AM EST 7:11 PM EST
Moon 2:22 AM EST (1/6) 1:01 PM EST (1/6)
Length of Visible Light 10h 25m
Length of Day
9h 24m
Waning Crescent, 33% of the Moon is Illuminated
Jan 6
Waning Crescent
Jan 11
New
Jan 18
First Quarter
Jan 26
Full
Feb 3
Last Quarter

Hourly Weather History & Observations

Time (EST) Temp. Windchill Dew Point Humidity Pressure Visibility Wind Dir Wind Speed Gust Speed Precip Events Conditions
12:15 AM 33.8 °F 23.9 °F 30.2 °F 87% 30.07 in 10.0 mi SW 15.0 mph - N/A   Overcast
12:35 AM 33.8 °F 24.3 °F 30.2 °F 87% 30.06 in 10.0 mi SW 13.8 mph - N/A   Overcast
12:55 AM 33.8 °F 24.8 °F 30.2 °F 87% 30.05 in 10.0 mi SSW 12.7 mph - N/A   Overcast
1:15 AM 33.8 °F 24.3 °F 30.2 °F 87% 30.04 in 10.0 mi SSW 13.8 mph 20.7 mph N/A   Overcast
1:35 AM 33.8 °F 25.3 °F 30.2 °F 87% 30.03 in 10.0 mi SSW 11.5 mph - N/A   Overcast
1:55 AM 33.8 °F 24.3 °F 30.2 °F 87% 30.03 in 10.0 mi SSW 13.8 mph - N/A   Overcast
2:15 AM 33.8 °F 25.3 °F 30.2 °F 87% 30.02 in 10.0 mi SSW 11.5 mph - N/A   Overcast
2:35 AM 33.8 °F 23.9 °F 30.2 °F 87% 30.02 in 10.0 mi SSW 15.0 mph 19.6 mph N/A   Overcast
2:55 AM 33.8 °F 25.3 °F 30.2 °F 87% 30.02 in 10.0 mi SSW 11.5 mph - N/A   Overcast
3:15 AM 33.8 °F 24.8 °F 30.2 °F 87% 30.01 in 10.0 mi SSW 12.7 mph - N/A   Overcast
3:35 AM 33.8 °F 23.9 °F 30.2 °F 87% 30.01 in 10.0 mi SSW 15.0 mph - N/A   Overcast
3:55 AM 33.8 °F 25.3 °F 30.2 °F 87% 30.00 in 10.0 mi SW 11.5 mph - N/A   Overcast
4:15 AM 33.8 °F 24.8 °F 30.2 °F 87% 29.99 in 10.0 mi SSW 12.7 mph - N/A   Overcast
4:35 AM 33.8 °F 25.3 °F 30.2 °F 87% 29.99 in 10.0 mi SW 11.5 mph 18.4 mph N/A   Overcast
5:15 AM 33.8 °F 24.8 °F 30.2 °F 87% 29.98 in 10.0 mi SW 12.7 mph - N/A   Overcast
5:35 AM 33.8 °F 25.3 °F 30.2 °F 87% 29.97 in 10.0 mi SW 11.5 mph - N/A   Overcast
5:55 AM 33.8 °F 25.3 °F 30.2 °F 87% 29.97 in 10.0 mi SW 11.5 mph - N/A   Overcast
6:15 AM 33.8 °F 25.3 °F 30.2 °F 87% 29.97 in 10.0 mi SW 11.5 mph - N/A   Overcast
6:35 AM 32.0 °F 23.6 °F 30.2 °F 93% 29.97 in 10.0 mi SW 10.4 mph - N/A   Overcast
6:55 AM 32.0 °F 23.6 °F 30.2 °F 93% 29.97 in 10.0 mi SW 10.4 mph - N/A   Overcast
7:15 AM 32.0 °F 23.0 °F 30.2 °F 93% 29.98 in 10.0 mi SW 11.5 mph - N/A   Overcast
7:35 AM 32.0 °F 24.2 °F 30.2 °F 93% 29.98 in 10.0 mi SW 9.2 mph - N/A   Overcast
7:55 AM 32.0 °F 24.2 °F 30.2 °F 93% 29.98 in 10.0 mi SW 9.2 mph - N/A   Overcast
8:15 AM 32.0 °F 23.0 °F 30.2 °F 93% 29.98 in 10.0 mi WSW 11.5 mph - N/A   Overcast
8:35 AM 33.8 °F 23.5 °F 30.2 °F 87% 29.98 in 10.0 mi WSW 16.1 mph 19.6 mph N/A   Overcast
8:55 AM 33.8 °F 23.5 °F 30.2 °F 87% 29.99 in 10.0 mi West 16.1 mph 20.7 mph N/A   Overcast
9:15 AM 32.0 °F 20.5 °F 28.4 °F 87% 30.01 in 7.0 mi West 18.4 mph 23.0 mph N/A   Overcast
9:35 AM 30.2 °F 18.5 °F 26.6 °F 86% 30.02 in 7.0 mi West 17.3 mph 21.9 mph N/A   Overcast
9:55 AM 30.2 °F 19.8 °F 24.8 °F 80% 30.03 in 10.0 mi West 13.8 mph 21.9 mph N/A   Overcast
10:15 AM 28.4 °F 17.0 °F 24.8 °F 86% 30.04 in 10.0 mi West 15.0 mph 23.0 mph N/A   Overcast
10:35 AM 28.4 °F 16.2 °F 24.8 °F 86% 30.06 in 10.0 mi West 17.3 mph 20.7 mph N/A   Overcast
10:55 AM 28.4 °F 16.2 °F 23.0 °F 80% 30.06 in 7.0 mi West 17.3 mph 24.2 mph N/A   Overcast
11:15 AM 26.6 °F 13.4 °F 21.2 °F 80% 30.07 in 10.0 mi West 18.4 mph 24.2 mph N/A   Overcast
11:35 AM 26.6 °F 13.8 °F 21.2 °F 80% 30.07 in 10.0 mi West 17.3 mph 21.9 mph N/A   Overcast
11:55 AM 26.6 °F 13.8 °F 21.2 °F 80% 30.07 in 10.0 mi West 17.3 mph 20.7 mph N/A   Overcast
12:15 PM 24.8 °F 11.5 °F 19.4 °F 80% 30.08 in 7.0 mi West 17.3 mph 25.3 mph N/A   Overcast
12:35 PM 24.8 °F 12.9 °F 19.4 °F 80% 30.08 in 7.0 mi West 13.8 mph 20.7 mph N/A   Overcast
12:55 PM 24.8 °F 12.4 °F 19.4 °F 80% 30.08 in 10.0 mi West 15.0 mph 21.9 mph N/A   Overcast
1:15 PM 23.0 °F 10.6 °F 19.4 °F 86% 30.08 in 7.0 mi West 13.8 mph 21.9 mph N/A   Overcast
1:35 PM 24.8 °F 14.6 °F 19.4 °F 80% 30.09 in 10.0 mi West 10.4 mph 18.4 mph N/A   Overcast
1:55 PM 24.8 °F 14.0 °F 19.4 °F 80% 30.09 in 10.0 mi WNW 11.5 mph 17.3 mph N/A   Overcast
2:15 PM 24.8 °F 12.9 °F 19.4 °F 80% 30.10 in 7.0 mi West 13.8 mph - N/A   Overcast
2:35 PM 26.6 °F 16.2 °F 19.4 °F 74% 30.11 in 10.0 mi West 11.5 mph - N/A   Overcast
2:55 PM 26.6 °F 16.2 °F 21.2 °F 80% 30.13 in 10.0 mi West 11.5 mph 17.3 mph N/A   Overcast
3:15 PM 26.6 °F 17.5 °F 21.2 °F 80% 30.14 in 10.0 mi West 9.2 mph - N/A   Overcast
3:35 PM 28.4 °F 19.1 °F 21.2 °F 74% 30.15 in 10.0 mi West 10.4 mph - N/A   Overcast
3:55 PM 28.4 °F 19.1 °F 21.2 °F 74% 30.17 in 10.0 mi West 10.4 mph 16.1 mph N/A   Overcast
4:15 PM 26.6 °F 16.8 °F 21.2 °F 80% 30.18 in 10.0 mi West 10.4 mph - N/A   Overcast
4:35 PM 28.4 °F 18.0 °F 21.2 °F 74% 30.19 in 10.0 mi WSW 12.7 mph - N/A   Overcast
4:55 PM 28.4 °F 18.5 °F 23.0 °F 80% 30.19 in 10.0 mi West 11.5 mph - N/A   Overcast
5:15 PM 28.4 °F 18.0 °F 23.0 °F 80% 30.21 in 10.0 mi West 12.7 mph - N/A   Overcast
5:35 PM 28.4 °F 19.1 °F 23.0 °F 80% 30.22 in 10.0 mi West 10.4 mph - N/A   Overcast
5:55 PM 28.4 °F 19.1 °F 23.0 °F 80% 30.23 in 10.0 mi West 10.4 mph - N/A   Overcast
6:15 PM 28.4 °F 18.5 °F 23.0 °F 80% 30.24 in 10.0 mi West 11.5 mph - N/A   Overcast
6:35 PM 28.4 °F 18.0 °F 23.0 °F 80% 30.25 in 10.0 mi West 12.7 mph - N/A   Overcast
6:55 PM 28.4 °F 18.0 °F 23.0 °F 80% 30.26 in 10.0 mi WSW 12.7 mph - N/A   Overcast
7:15 PM 28.4 °F 18.5 °F 24.8 °F 86% 30.28 in 10.0 mi WSW 11.5 mph - N/A   Overcast
7:35 PM 28.4 °F 18.0 °F 24.8 °F 86% 30.28 in 10.0 mi West 12.7 mph - N/A   Overcast
7:55 PM 28.4 °F 19.7 °F 24.8 °F 86% 30.29 in 10.0 mi West 9.2 mph - N/A   Overcast
8:15 PM 30.2 °F 20.8 °F 24.8 °F 80% 30.30 in 10.0 mi West 11.5 mph - N/A   Overcast
8:35 PM 30.2 °F 21.9 °F 24.8 °F 80% 30.31 in 10.0 mi WSW 9.2 mph - N/A   Overcast
8:55 PM 28.4 °F 19.1 °F 24.8 °F 86% 30.31 in 10.0 mi WSW 10.4 mph - N/A   Overcast
9:15 PM 28.4 °F 19.7 °F 24.8 °F 86% 30.31 in 10.0 mi WSW 9.2 mph - N/A   Overcast
9:35 PM 28.4 °F 20.4 °F 24.8 °F 86% 30.32 in 10.0 mi WSW 8.1 mph - N/A   Overcast
9:55 PM 28.4 °F 19.1 °F 24.8 °F 86% 30.33 in 10.0 mi West 10.4 mph - N/A   Overcast
10:15 PM 28.4 °F 21.2 °F 24.8 °F 86% 30.33 in 10.0 mi West 6.9 mph - N/A   Overcast
10:35 PM 28.4 °F 19.7 °F 24.8 °F 86% 30.34 in 10.0 mi West 9.2 mph - N/A   Overcast
11:15 PM 28.4 °F 22.2 °F 23.0 °F 80% 30.34 in 10.0 mi West 5.8 mph - N/A   Overcast
11:35 PM 26.6 °F 21.2 °F 23.0 °F 86% 30.34 in 10.0 mi WSW 4.6 mph - N/A   Overcast
11:55 PM 26.6 °F 19.1 °F 23.0 °F 86% 30.34 in 10.0 mi WSW 6.9 mph - N/A   Overcast